DIAMANT B-P4 R/B, 7647

Orbit data source: Space-Track

DIAMANT B-P4 R/B, 7647 is space debris in LEO originally from a launch on Thu, 06 Feb 1975 UTC launched from the French Guiana (FRGUI). Debris objects in space refer to the collection of defunct objects orbiting the Earth. Examples of debris include non-operational satellites, rocket bodies, and fragments generated from explosions, collisions, or faulty payload assembly.

Loading next visibility...
Identifier
7647, 1975-010B
Orbit
LEO
Country
Flag of FRFR
Related business
Manufacturer
Ae/Cannes
Mission
Spacecraft
Bus & Motor
RUBIS, Unknown motor
Mass
~95 kg wet, ~95 kg dry
Launch date (UTC)
1975-02-06 (51 years ago)
Launch vehicle
Unknown
Launch site
French Guiana (FRGUI)
Object type
Payload
Rocket body
Debris
Shape & HBR
Unknown
Radar Cross Section
Medium (>0.1 m² and <1 m²)

Expand to show TLE details & history
Last TLE update: 6 hours ago

TLE from 6 hours ago
0 DIAMANT B-P4 R/B
1 07647U 75010B   26128.24271479 -.00000089  00000-0  42785-4 0  9990
2 07647  49.8231 105.5489 0217129 114.8835 247.4798 13.82341125585512
Epoch: 2026-05-08T05:49Z
TLE epoch observation values (Epoch: 2026-05-08T05:49:30.557Z)
Latitude
0.00001°
Longitude
152.09428°
Altitude
1,019.996 km
Speed
7.311 km/s
True Right ascension
07h 02m 11s
True Declination
0° 00' 00"
Sunlit
Object was in daylight at epoch
Visualization orbit readout
Latitude
Unknown
Longitude
Unknown
Altitude
Unknown
Speed
Unknown
Apparent Right ascension
Unknown
Apparent Declination
Unknown
Sunlit
N/A
Visualization observer readout
Local Sidereal Time
19:45:36
Azimuth
Unknown
Elevation
Unknown
Doppler factor
Unknown
Orbital elements
Apogee altitude
1,115.599 km
Perigee altitude
797.094 km
Semi-major axis
7,334.483 km
Eccentricity
0.02171
Inclination
49.8231°
RAAN
105.5489°
Arg. of periapsis
114.8835°
True anomaly
245.20567°
Mean anomaly
247.4798°
Eccentric anomaly
246.34031°
Mean motion
3.45532 °/min
Orbital period
104.19 mins
BSTAR
0.000042785
Loading maneuver chart data...
Computing Atmospheric mass density...
Loading historical data...
Loading historical data...
Loading historical data...
Loading historical data...
Loading historical data...
Loading historical data...
Loading historical data...
Other satellites on launch #10 in the year 1975 (1975-02-06 UTC)

Documentation

Showing up to 5 results
|